Details for BA CityFlyer at EGLC




Go Back


Latest METAR
Local Time

EGLC 252150Z AUTO 06004KT 5000 HZ NCD 17/14 Q1019

25/05/2018, 23:12:34

Description
Results
BA CityFlyer Logo
Number of Pilots based at EGLC
0 Pilots Based here
Number of BA CityFlyer Flights Departed from EGLC
0 Flights Departed
Number of BA CityFlyer Flights Arrived at EGLC
0 Flights Arrived
Number of BA CityFlyer Schedules Departing from EGLC
88 Schedules
Number of BA CityFlyer Schedules Arriving at EGLC
90 Schedules
Number of BA CityFlyer Schedules Departing from EGLC availible today
59 Schedules Today
Number of BA CityFlyer Schedules Arriving at EGLC availible today
59 Schedules Today
Average Landing Rate at EGLC
-408 fpm
BA CityFlyer Average Landing Rate at EGLC
0 fpm
Total Fuel Purchased at EGLC by BA CityFlyer
0.00 kgs / 0.00 lbs

Pilots Based at EGLC


Pilot ID
Pilot Name
Pilot Rank
No. of Flights
No. of Flying Hours
There are no pilots assigned to this hub!   Will you be the first?
Content